Weather reports worldwide

Advertisment
Capo Frasca, Italy (16539): temperature & dewpoint: 16.07.2019 04:00:00 - 22.07.2019 04:00:00 (CEST)Capo Frasca, Italy (16539): wind speed: 16.07.2019 04:00:00 - 22.07.2019 04:00:00 (CEST)Capo Frasca, Italy (16539): wind direction: 16.07.2019 04:00:00 - 22.07.2019 04:00:00 (CEST)Capo Frasca, Italy (16539): reduced air pressure: 16.07.2019 04:00:00 - 22.07.2019 04:00:00 (CEST)Capo Frasca, Italy (16539): visibility: 16.07.2019 04:00:00 - 22.07.2019 04:00:00 (CEST)
Date & Time tt [°C] td [°C] ff [km/h] ff [kn] dd ppp [hPa] vv [km]
22.07.2019 04:00:00 - - - - - - -
22.07.2019 03:00:00 - - - - - - -
22.07.2019 02:00:00 - - - - - - -
22.07.2019 01:00:00 - - - - - - -
22.07.2019 00:00:00 - - - - - - -
21.07.2019 23:00:00 - - - - - - -
21.07.2019 22:00:00 - - - - - - -
21.07.2019 21:00:00 - - - - - - -
21.07.2019 20:00:00 26,2 25,2 15 8 W 1020,6 25
21.07.2019 19:00:00 - - - - - - -
21.07.2019 18:00:00 - - - - - - -
21.07.2019 17:00:00 28,2 25,6 13 7 W 1020,4 20
21.07.2019 16:00:00 - - - - - - -
21.07.2019 15:00:00 - - - - - - -
21.07.2019 14:00:00 30,6 23,5 13 7 WNW 1019,9 20
21.07.2019 13:00:00 - - - - - - -
21.07.2019 12:00:00 - - - - - - -
21.07.2019 11:00:00 30,0 18,4 16 9 SSE 1019,7 20
21.07.2019 10:00:00 - - - - - - -
21.07.2019 09:00:00 - - - - - - -
21.07.2019 08:00:00 23,4 22,4 18 10 SE 1019,9 20
21.07.2019 07:00:00 - - - - - - -
21.07.2019 06:00:00 - - - - - - -
21.07.2019 05:00:00 - - - - - - -
21.07.2019 04:00:00 - - - - - - -
21.07.2019 03:00:00 - - - - - - -
21.07.2019 02:00:00 - - - - - - -
21.07.2019 01:00:00 - - - - - - -
21.07.2019 00:00:00 - - - - - - -
20.07.2019 23:00:00 - - - - - - -
20.07.2019 22:00:00 - - - - - - -
20.07.2019 21:00:00 - - - - - - -
20.07.2019 20:00:00 27,0 23,9 16 9 N 1017,7 20
20.07.2019 19:00:00 - - - - - - -
20.07.2019 18:00:00 - - - - - - -
20.07.2019 17:00:00 27,8 26,7 16 9 N 1017,3 20
20.07.2019 16:00:00 - - - - - - -
20.07.2019 15:00:00 - - - - - - -
20.07.2019 14:00:00 34,4 17,6 11 6 SE 1016,6 20
20.07.2019 13:00:00 - - - - - - -
20.07.2019 12:00:00 - - - - - - -
20.07.2019 11:00:00 29,2 24,8 22 12 SE 1016,6 20
20.07.2019 10:00:00 - - - - - - -
20.07.2019 09:00:00 - - - - - - -
20.07.2019 08:00:00 23,4 22,2 24 13 SE 1016,5 10
20.07.2019 07:00:00 - - - - - - -
20.07.2019 06:00:00 - - - - - - -
20.07.2019 05:00:00 - - - - - - -
20.07.2019 04:00:00 - - - - - - -
20.07.2019 03:00:00 - - - - - - -
20.07.2019 02:00:00 - - - - - - -
20.07.2019 01:00:00 - - - - - - -
20.07.2019 00:00:00 - - - - - - -
19.07.2019 23:00:00 - - - - - - -
19.07.2019 22:00:00 - - - - - - -
19.07.2019 21:00:00 - - - - - - -
19.07.2019 20:00:00 25,2 24,5 9 5 NNW 1016,0 25
19.07.2019 19:00:00 - - - - - - -
19.07.2019 18:00:00 - - - - - - -
19.07.2019 17:00:00 26,8 24,1 18 10 NNW 1016,0 20
19.07.2019 16:00:00 - - - - - - -
19.07.2019 15:00:00 - - - - - - -
19.07.2019 14:00:00 27,0 24,8 18 10 NW 1016,5 20
19.07.2019 13:00:00 - - - - - - -
19.07.2019 12:00:00 - - - - - - -
19.07.2019 11:00:00 25,8 24,0 15 8 N 1016,2 20
19.07.2019 10:00:00 - - - - - - -
19.07.2019 09:00:00 - - - - - - -
19.07.2019 08:00:00 22,2 21,0 11 6 N 1015,9 10
19.07.2019 07:00:00 - - - - - - -
19.07.2019 06:00:00 - - - - - - -
19.07.2019 05:00:00 - - - - - - -
19.07.2019 04:00:00 - - - - - - -
19.07.2019 03:00:00 - - - - - - -
19.07.2019 02:00:00 - - - - - - -
19.07.2019 01:00:00 - - - - - - -
19.07.2019 00:00:00 - - - - - - -
18.07.2019 23:00:00 - - - - - - -
18.07.2019 22:00:00 - - - - - - -
18.07.2019 21:00:00 - - - - - - -
18.07.2019 20:00:00 25,2 24,9 15 8 NW 1013,2 20
18.07.2019 19:00:00 - - - - - - -
18.07.2019 18:00:00 - - - - - - -
18.07.2019 17:00:00 26,8 26,1 18 10 W 1013,2 20
18.07.2019 16:00:00 - - - - - - -
18.07.2019 15:00:00 - - - - - - -
18.07.2019 14:00:00 25,0 24,3 15 8 WNW 1013,4 25
18.07.2019 13:00:00 - - - - - - -
18.07.2019 12:00:00 - - - - - - -
18.07.2019 11:00:00 25,2 24,0 8 4 NNW 1013,1 20
18.07.2019 10:00:00 - - - - - - -
18.07.2019 09:00:00 - - - - - - -
18.07.2019 08:00:00 21,6 20,4 0 0 N 1012,7 10
18.07.2019 07:00:00 - - - - - - -
18.07.2019 06:00:00 - - - - - - -
18.07.2019 05:00:00 - - - - - - -
18.07.2019 04:00:00 - - - - - - -
18.07.2019 03:00:00 - - - - - - -
18.07.2019 02:00:00 - - - - - - -
18.07.2019 01:00:00 - - - - - - -
18.07.2019 00:00:00 - - - - - - -
17.07.2019 23:00:00 - - - - - - -
17.07.2019 22:00:00 - - - - - - -
17.07.2019 21:00:00 - - - - - - -
17.07.2019 20:00:00 24,2 23,9 15 8 N 1013,0 25
17.07.2019 19:00:00 - - - - - - -
17.07.2019 18:00:00 - - - - - - -
17.07.2019 17:00:00 26,8 24,7 22 12 NNW 1013,8 20
17.07.2019 16:00:00 - - - - - - -
17.07.2019 15:00:00 - - - - - - -
17.07.2019 14:00:00 26,4 19,8 16 9 NW 1014,3 20
17.07.2019 13:00:00 - - - - - - -
17.07.2019 12:00:00 - - - - - - -
17.07.2019 11:00:00 24,4 21,9 9 5 NNW 1014,6 20
17.07.2019 10:00:00 - - - - - - -
17.07.2019 09:00:00 - - - - - - -
17.07.2019 08:00:00 19,6 18,4 8 4 SE 1014,2 10
17.07.2019 07:00:00 - - - - - - -
17.07.2019 06:00:00 - - - - - - -
17.07.2019 05:00:00 - - - - - - -
17.07.2019 04:00:00 - - - - - - -
17.07.2019 03:00:00 - - - - - - -
17.07.2019 02:00:00 - - - - - - -
17.07.2019 01:00:00 - - - - - - -
17.07.2019 00:00:00 - - - - - - -
16.07.2019 23:00:00 - - - - - - -
16.07.2019 22:00:00 - - - - - - -
16.07.2019 21:00:00 - - - - - - -
16.07.2019 20:00:00 23,8 23,8 24 13 N 1012,7 20
16.07.2019 19:00:00 - - - - - - -
16.07.2019 18:00:00 - - - - - - -
16.07.2019 17:00:00 25,4 24,9 26 14 N 1012,8 20
16.07.2019 16:00:00 - - - - - - -
16.07.2019 15:00:00 - - - - - - -
16.07.2019 14:00:00 25,8 24,0 22 12 NNW 1011,9 20
16.07.2019 13:00:00 - - - - - - -
16.07.2019 12:00:00 - - - - - - -
16.07.2019 11:00:00 24,4 21,9 26 14 N 1011,4 20
16.07.2019 10:00:00 - - - - - - -
16.07.2019 09:00:00 - - - - - - -
16.07.2019 08:00:00 21,4 20,0 22 12 NNE 1009,6 20
16.07.2019 07:00:00 - - - - - - -
16.07.2019 06:00:00 - - - - - - -
16.07.2019 05:00:00 - - - - - - -
16.07.2019 04:00:00 - - - - - - -

tt = temperature
td = dewpoint
ff = wind speed
dd = wind direction
ppp = reduced air pressure
vv = visibility

Next stations